Weather observations for the past three days for
Northeast Florida Regional Airport
Metric (Imperial)
Date Time (edt) Wind (kph) Vis. (km) Weather Sky Cond. Temperature (ºC) Relative Humidity Wind Chill (°C) Heat Index (°C) Pressure Precipitation (cm)
Air Dwpt 6 hour altimeter (cm) sea level (mb) 1 hr 3 hr 6 hr
Max. Min.
03 03:56 Calm 16.09 Fair CLR 26.1 25 94% 28 76.12 1014.7
03 02:56 NE 6 16.09 Fair CLR 26.7 25.6 94% 30 76.15 1015.2
03 01:56 NE 6 16.09 Fair CLR 26.7 25.6 27.2 26.7 94% 30 76.2 1015.7
03 00:56 E 13 16.09 Mostly Cloudy BKN020 27.2 25.6 91% 31 76.23 1016.1
02 23:56 NE 7 16.09 Fair CLR 26.7 25.6 94% 30 76.25 1016.4
02 22:56 NE 11 16.09 A Few Clouds FEW024 26.7 25 90% 30 76.25 1016.6
02 21:56 NE 11 16.09 Fair CLR 26.7 25 90% 30 76.25 1016.7
02 20:56 NE 11 16.09 Fair CLR 27.2 25 88% 31 76.25 1016.6
02 19:56 NE 15 16.09 Fog/Mist BKN075 27.2 25.6 28.9 26.1 91% 31 76.23 1016.4 0.03
02 18:56 NE 15 16.09 Fog/Mist FEW003 BKN080 27.2 24.4 85% 31 76.2 1015.9
02 17:56 E 11 9.66 Thunderstorm Fog/Mist SCT008 BKN012 BKN048 26.1 25 94% 28 76.23 1016.2
02 16:56 E 11 16.09 Fog/Mist FEW050 BKN060 OVC075 27.2 25.6 91% 31 76.23 1016.2 0.03
02 15:56 NE 17 9.66 Fog/Mist SCT008 BKN026 27.8 25.6 88% 33 76.25 1016.4
02 14:56 NE 17 11.27 Rain Fog/Mist BKN013 BKN020 OVC055 27.2 26.1 94% 32 76.28 1016.7 0.03
02 13:56 NE 22 16.09 Rain Fog/Mist FEW011 BKN027 28.3 25.6 30 25 85% 34 76.28 1017.0 0.08
02 12:56 N 17 4.83 Rain Fog/Mist BKN008 BKN023 27.2 25.6 91% 31 76.33 1017.4 0.08
02 11:56 N 26 G 31 4.83 Rain Fog/Mist BKN008 BKN023 28.9 26.1 85% 36 76.33 1017.7
02 10:56 N 22 11.27 Mostly Cloudy BKN012 29.4 26.7 85% 37 76.35 1018.0
02 09:56 N 20 11.27 Partly Cloudy SCT012 29.4 26.1 82% 36 76.33 1017.7
02 08:56 N 17 16.09 Fair CLR 28.9 26.7 88% 36 76.33 1017.6
02 07:56 N 13 16.09 Fair CLR 27.8 26.7 27.8 26.7 94% 34 76.3 1017.3
02 06:56 N 13 16.09 Mostly Cloudy FEW008 BKN060 27.2 26.1 94% 32 76.28 1016.9
02 05:56 N 15 16.09 Fair CLR 27.2 26.1 94% 32 76.25 1016.6
02 04:56 N 13 16.09 Fair CLR 27.2 25.6 91% 31 76.23 1016.2
02 03:56 N 11 16.09 Fair CLR 27.2 25.6 91% 31 76.25 1016.4
02 02:56 NE 9 16.09 Fair CLR 27.2 25.6 91% 31 76.25 1016.5
02 01:56 NE 7 16.09 Fair CLR 27.2 25.6 27.8 27.2 91% 31 76.23 1016.4
02 00:56 NE 7 16.09 Fair CLR 27.2 26.1 94% 32 76.28 1016.8
01 23:56 NE 9 16.09 Fair CLR 27.2 26.1 94% 32 76.28 1017.0
01 22:56 NE 7 16.09 Fair CLR 27.2 26.1 94% 32 76.33 1017.6
01 21:56 NE 11 16.09 Fair CLR 27.8 26.1 90% 33 76.33 1017.5
01 20:56 NE 9 16.09 A Few Clouds FEW015 27.8 26.1 90% 33 76.3 1017.2
01 19:56 N 11 16.09 Fair CLR 27.8 25.6 30 27.8 88% 33 76.3 1017.1
01 18:56 NE 17 16.09 Fair CLR 28.3 25 82% 33 76.28 1016.9
01 17:56 NE 15 16.09 Fair CLR 28.9 25.6 82% 35 76.25 1016.7
01 16:56 NE 19 16.09 A Few Clouds FEW011 28.9 26.1 85% 36 76.28 1016.8
01 15:56 E 11 11.27 Mostly Cloudy SCT008 BKN012 28.9 25.6 82% 35 76.33 1017.6
01 14:56 NE 20 11.27 Mostly Cloudy SCT008 BKN014 29.4 26.7 85% 37 76.3 1017.4
01 13:56 NE 19 11.27 Mostly Cloudy SCT008 BKN014 29.4 26.1 30 26.1 82% 36 76.38 1018.1
01 12:56 NE 22 11.27 Mostly Cloudy SCT008 BKN014 30 25.6 77% 37 76.4 1018.6
01 11:56 NE 17 11.27 Mostly Cloudy SCT008 BKN016 29.4 25.6 80% 36 76.43 1018.8
01 10:56 NE 17 11.27 Mostly Cloudy SCT008 BKN016 28.9 25.6 82% 35 76.43 1018.8
01 09:56 NE 17 16.09 Fair CLR 28.9 25.6 82% 35 76.38 1018.3
01 08:56 N 13 11.27 Partly Cloudy SCT008 27.8 26.1 90% 33 76.38 1018.3
01 07:56 N 6 16.09 Fair CLR 26.1 25.6 26.1 25 97% 29 76.35 1017.8
01 06:56 NW 6 16.09 Fair CLR 25 24.4 96% 25 76.3 1017.1
01 05:56 NW 7 16.09 Fair CLR 25 24.4 96% 25 76.25 1016.6
01 04:56 Calm 16.09 Partly Cloudy SCT018 26.1 25 94% 28 76.25 1016.6
01 03:56 Calm 16.09 Fair CLR 25.6 25 97% 27 76.25 1016.6
01 02:56 NW 6 16.09 Fair CLR 26.1 25 94% 28 76.3 1017.1
01 01:56 Calm 16.09 Fair CLR 26.1 25 27.2 26.1 94% 28 76.33 1017.7
01 00:56 Calm 16.09 Fair CLR 26.7 25 90% 30 76.38 1018.3
31 23:56 Calm 16.09 Fair CLR 26.7 25.6 94% 30 76.38 1018.2
31 22:56 NE 7 16.09 Fair CLR 26.7 25.6 94% 30 76.4 1018.5
31 21:56 NE 9 16.09 Fair CLR 27.2 25.6 91% 31 76.38 1018.2
31 20:56 N 11 16.09 Fair CLR 26.7 25.6 94% 30 76.35 1017.8
31 19:56 NE 13 16.09 Mostly Cloudy BKN030 26.7 25 29.4 26.7 90% 30 76.33 1017.5
31 18:56 NE 13 16.09 Mostly Cloudy BKN030 27.2 24.4 85% 31 76.33 1017.7
31 17:56 NE 13 16.09 Fair CLR 27.8 24.4 82% 32 76.33 1017.5
31 16:56 NE 15 11.27 Fair CLR 28.3 24.4 79% 33 76.35 1017.8
31 15:56 NE 22 16.09 Fair CLR 29.4 24.4 75% 35 76.33 1017.6
31 14:56 NE 20 16.09 Fair CLR 27.8 24.4 82% 32 76.35 1018.0
31 13:56 NE 20 16.09 Fair CLR 28.9 25.6 30 26.1 82% 35 76.43 1018.8
31 12:56 NE 17 16.09 Fair CLR 29.4 25.6 80% 36 76.45 1019.1
31 11:56 NE 20 16.09 Fair CLR 29.4 25.6 80% 36 76.48 1019.5
31 10:56 NE 15 16.09 Mostly Cloudy BKN011 28.9 25 80% 34 76.48 1019.6
31 09:56 NE 15 16.09 Mostly Cloudy BKN011 28.9 25.6 82% 35 76.43 1018.8
31 08:56 N 7 11.27 Mostly Cloudy BKN022 27.8 25.6 88% 33 76.38 1018.3
31 06:56 NW 7 16.09 Fair CLR 25.6 24.4 93% 27 76.33 0.0
31 05:56 Calm 16.09 Fair CLR 25.6 25 97% 27 76.3 0.0
31 04:56 Calm 16.09 Fair CLR 25.6 24.4 93% 27 76.3 0.0
Date Time (edt) Wind (kph) Vis. (km) Weather Sky Cond. Air Dwpt Max. Min. Relative Humidity Wind Chill (°C) Heat Index (°C) altimeter (cm) sea level (mb) 1 hr 3 hr 6 hr
6 hour
Temperature (ºC) Pressure Precipitation (cm)